NINGXIA-1 7 (49019 NORAD) Tracking and Keplerian Element Data

This shows tracking and keplerian element data for the satellite.

Feedback or suggestion? Click here.




ElementValue
Catalog49019
NameNINGXIA-1 7
Epoch Orbit288
Epoch Day210.97424239
Epoch Year2021
RAAN359.3357
Inclination45.0066
Eccentricity0.0007531
Argument of Perigee347.5984
Mean Anonmoly12.47
Mean Motion14.08324516
Decay Rate-4.3E-07
L11 49019U 21064B 21210.97424239 -.00000043 00000-0 51464-4 0 9994
L22 49019 45.0066 359.3357 0007531 347.5984 12.4700 14.08324516 2883

Live tracking and technical data element details for NINGXIA-1 7 (NORAD 49019). NINGXIA-1 7 can be tracked NOW for your location showing map with azimuth and elevation plus other details from your city location.

Track the satellite on the map from your city or location and see movement details for azimuth, elevation, latitude, longitude, range, height, and movement on the map or in text.







IsCatalogInMostPopularTable: catalog: 49019, numindb: 2
Update: records affected: 1



GetName: 49019 NINGXIA-1 7

Hit Count: updated at: Sat, 31 Jul 2021 16:28:15 GMT